This is the latest recevied weather packets stored in our database for station/object KJ4EBE. If no packets are shown the sender has not sent any weather packets the latest 10 day(s).
| Time | Temp. | Humidity | Pressure | Rain* | Wind** | Luminosity | Snow |
|---|---|---|---|---|---|---|---|
| 1777392062 | 26.67° C | 86% | 1012.2 hPa | 0 mm | - | 238 W/m² | - |
| 1777391756 | 26.67° C | 86% | 1012.1 hPa | 0 mm | - | 161 W/m² | - |
| 1777391454 | 26.67° C | 84% | 1012.1 hPa | 0 mm | - | 124 W/m² | - |
| 1777391150 | 26.67° C | 85% | 1012.2 hPa | 0 mm | - | 243 W/m² | - |
| 1777390846 | 26.67° C | 86% | 1012.3 hPa | 0 mm | - | 207 W/m² | - |
| 1777390543 | 26.11° C | 87% | 1012.4 hPa | 0 mm | - | 247 W/m² | - |
| 1777390239 | 26.67° C | 86% | 1012.3 hPa | 0 mm | - | 110 W/m² | - |
| 1777389935 | 26.11° C | 86% | 1012.2 hPa | 0 mm | - | 206 W/m² | - |
| 1777389627 | 26.11° C | 87% | 1012.3 hPa | 0 mm | - | 169 W/m² | - |
| 1777389323 | 26.11° C | 87% | 1012.1 hPa | 0 mm | - | 222 W/m² | - |
| 1777389021 | 25.56° C | 87% | 1012.2 hPa | 0 mm | - | 190 W/m² | - |
| 1777388718 | 26.11° C | 88% | 1012.1 hPa | 0 mm | - | 158 W/m² | - |
| 1777388415 | 25.56° C | 89% | 1012.3 hPa | 0 mm | - | 254 W/m² | - |
| 1777388115 | 25.56° C | 89% | 1012.5 hPa | 0 mm | - | 183 W/m² | - |
| 1777387811 | 25.56° C | 89% | 1012.3 hPa | 0 mm | - | 170 W/m² | - |
| 1777387508 | 25° C | 90% | 1012.1 hPa | 0 mm | - | 133 W/m² | - |
| 1777387203 | 25° C | 90% | 1012.3 hPa | 0 mm | - | 58 W/m² | - |
| 1777386898 | 25° C | 90% | 1012.2 hPa | 0 mm | - | 59 W/m² | - |
| 1777386595 | 25° C | 90% | 1012.5 hPa | 0 mm | - | 59 W/m² | - |
| 1777386293 | 25° C | 90% | 1012.2 hPa | 0 mm | - | 67 W/m² | - |
| 1777385989 | 25° C | 90% | 1012.1 hPa | 0 mm | - | 60 W/m² | - |
| 1777385685 | 25° C | 91% | 1012.1 hPa | 0 mm | - | 54 W/m² | - |
| 1777385383 | 25° C | 90% | 1012.1 hPa | 0 mm | - | 31 W/m² | - |
| 1777385079 | 25° C | 90% | 1012.2 hPa | 0 mm | - | 39 W/m² | - |
| 1777384776 | 25° C | 90% | 1012.1 hPa | 0 mm | - | 36 W/m² | - |
* Rain latest hour (hover to see other rain measurements)
** Current wind speed in m/s (hover to see current wind gust speed)